When you browse on this site, cookies collect data to enhance your experience and personalize the content and advertising you see.
Visit our Privacy Policy to learn more. By continuing to use the site, you agree to this use of cookies and data.
  • In Austria
  • List of Countries
  • For 7 days
  • Water Temperature
  • Weather Map
  • News
  • Weather Widgets
  • user-avatar
    Login

    Hourly Weather Bad Tatzmanndorf

    Today, 23 February, Sunday

    Time Temperature Precipitation Wind Pressure Humidity
    00:00 +6°C° 0 mm 2 mps 734 mmHg 56%
    01:00 +7°C° 0 mm 2 mps 733 mmHg 55%
    02:00 +6°C° 0 mm 2 mps 733 mmHg 57%
    03:00 +6°C° 0 mm 2 mps 733 mmHg 60%
    04:00 +6°C° 0 mm 2 mps 733 mmHg 62%
    05:00 +6°C° 0 mm 2 mps 733 mmHg 63%
    06:00 +7°C° 0 mm 1 mps 733 mmHg 65%
    07:00 +7°C° 0 mm 1 mps 733 mmHg 65%
    08:00 +8°C° 0 mm 1 mps 732 mmHg 64%
    09:00 +8°C° 0 mm 1 mps 732 mmHg 62%
    10:00 +9°C° 0 mm 1 mps 732 mmHg 61%
    11:00 +9°C° 0 mm 1 mps 731 mmHg 61%
    12:00 +8°C° 0 mm 2 mps 731 mmHg 61%
    13:00 +9°C° 0 mm 1 mps 730 mmHg 66%
    14:00 +9°C° 0 mm 2 mps 729 mmHg 66%
    15:00 +9°C° 0 mm 2 mps 728 mmHg 66%
    16:00 +9°C° 0 mm 2 mps 727 mmHg 66%
    17:00 +9°C° 0 mm 2 mps 727 mmHg 68%
    18:00 +9°C° 0 mm 2 mps 726 mmHg 71%
    19:00 +8°C° 0 mm 2 mps 726 mmHg 74%
    20:00 +8°C° 0 mm 2 mps 726 mmHg 74%
    21:00 +8°C° 0 mm 2 mps 725 mmHg 74%
    22:00 +9°C° 0 mm 2 mps 725 mmHg 74%
    23:00 +9°C° 0 mm 2 mps 725 mmHg 74%

    Tomorrow, 24 February, Monday

    Time Temperature Precipitation Wind Pressure Humidity
    00:00 +9°C° 0 mm 3 mps 725 mmHg 73%
    01:00 +9°C° 0 mm 3 mps 726 mmHg 73%
    02:00 +9°C° 0.2 mm 3 mps 727 mmHg 74%
    03:00 +9°C° 0.2 mm 3 mps 727 mmHg 76%
    04:00 +9°C° 0.2 mm 3 mps 728 mmHg 77%
    05:00 +8°C° 0.2 mm 3 mps 729 mmHg 74%
    06:00 +7°C° 0.2 mm 3 mps 730 mmHg 71%
    07:00 +5°C° 0.2 mm 3 mps 731 mmHg 68%
    08:00 +5°C° 0 mm 3 mps 732 mmHg 60%
    09:00 +7°C° 0 mm 3 mps 732 mmHg 52%
    10:00 +8°C° 0 mm 3 mps 733 mmHg 44%
    11:00 +8°C° 0 mm 3 mps 733 mmHg 44%
    12:00 +9°C° 0 mm 2 mps 733 mmHg 43%
    13:00 +9°C° 0 mm 2 mps 733 mmHg 42%
    14:00 +9°C° 0.1 mm 2 mps 732 mmHg 50%
    15:00 +8°C° 0.1 mm 2 mps 732 mmHg 59%
    16:00 +8°C° 0.1 mm 3 mps 731 mmHg 67%
    17:00 +7°C° 0 mm 3 mps 731 mmHg 69%
    18:00 +7°C° 0 mm 3 mps 730 mmHg 71%
    19:00 +5°C° 0 mm 3 mps 729 mmHg 73%
    20:00 +5°C° 0 mm 3 mps 729 mmHg 76%
    21:00 +4°C° 0 mm 3 mps 728 mmHg 78%
    22:00 +4°C° 0 mm 3 mps 728 mmHg 81%
    23:00 +3°C° 0 mm 3 mps 727 mmHg 83%

    Day after tomorrow, 25 February, Tuesday

    Time Temperature Precipitation Wind Pressure Humidity
    00:00 +3°C° 0 mm 3 mps 726 mmHg 85%
    01:00 +4°C° 0 mm 2 mps 726 mmHg 87%
    02:00 +4°C° 0 mm 2 mps 725 mmHg 87%
    03:00 +4°C° 0 mm 2 mps 724 mmHg 87%
    04:00 +4°C° 0 mm 2 mps 724 mmHg 88%
    05:00 +4°C° 0 mm 2 mps 723 mmHg 88%
    06:00 +4°C° 0 mm 1 mps 723 mmHg 88%
    07:00 +4°C° 0 mm 1 mps 723 mmHg 87%
    08:00 +6°C° 0 mm 1 mps 723 mmHg 80%
    09:00 +8°C° 0 mm 1 mps 722 mmHg 73%
    10:00 +10°C° 0 mm 1 mps 722 mmHg 66%
    11:00 +10°C° 0 mm 2 mps 722 mmHg 63%
    12:00 +13°C° 0 mm 2 mps 721 mmHg 60%
    13:00 +14°C° 0 mm 2 mps 721 mmHg 56%
    14:00 +13°C° 0 mm 2 mps 720 mmHg 58%
    15:00 +13°C° 0 mm 1 mps 719 mmHg 60%
    16:00 +13°C° 0 mm 1 mps 718 mmHg 62%
    17:00 +12°C° 0 mm 1 mps 718 mmHg 68%
    18:00 +11°C° 0 mm 1 mps 718 mmHg 73%
    19:00 +10°C° 0 mm 1 mps 718 mmHg 79%
    20:00 +10°C° 0.5 mm 1 mps 718 mmHg 80%
    21:00 +8°C° 0.5 mm 2 mps 717 mmHg 82%
    22:00 +8°C° 0.5 mm 2 mps 717 mmHg 84%
    23:00 +7°C° 1.3 mm 2 mps 717 mmHg 86%

    26 February, Wednesday

    Time Temperature Precipitation Wind Pressure Humidity
    00:00 +8°C° 1.3 mm 1 mps 717 mmHg 88%
    01:00 +8°C° 1.3 mm 1 mps 716 mmHg 90%
    02:00 +7°C° 0.3 mm 1 mps 716 mmHg 89%
    03:00 +7°C° 0.3 mm 1 mps 716 mmHg 88%
    04:00 +6°C° 0.3 mm 2 mps 715 mmHg 87%
    05:00 +6°C° 0.8 mm 1 mps 715 mmHg 86%
    06:00 +6°C° 0.8 mm 1 mps 715 mmHg 86%
    07:00 +5°C° 0.8 mm 1 mps 715 mmHg 85%
    08:00 +5°C° 0.4 mm 1 mps 715 mmHg 83%
    09:00 +5°C° 0.4 mm 2 mps 715 mmHg 82%
    10:00 +5°C° 0.4 mm 2 mps 715 mmHg 80%
    11:00 +4°C° 1.3 mm 2 mps 715 mmHg 83%
    12:00 +4°C° 1.3 mm 2 mps 715 mmHg 86%
    13:00 +3°C° 1.3 mm 2 mps 715 mmHg 89%
    14:00 +3°C° 0.9 mm 2 mps 715 mmHg 86%
    15:00 +3°C° 0.9 mm 2 mps 715 mmHg 83%
    16:00 +3°C° 0.9 mm 2 mps 715 mmHg 80%
    17:00 +2°C° 0.1 mm 3 mps 715 mmHg 78%
    18:00 +1°C° 0.1 mm 3 mps 716 mmHg 76%
    19:00 +1°C° 0.1 mm 3 mps 716 mmHg 74%
    20:00 +1°C° 0 mm 3 mps 716 mmHg 72%
    21:00 0°C° 0 mm 3 mps 716 mmHg 71%
    22:00 0°C° 0 mm 3 mps 717 mmHg 69%
    23:00 0°C° 0 mm 3 mps 717 mmHg 70%

    27 February, Thursday

    Time Temperature Precipitation Wind Pressure Humidity
    00:00 0°C° 0 mm 3 mps 717 mmHg 70%
    01:00 0°C° 0 mm 3 mps 718 mmHg 71%
    02:00 -1°C° 0 mm 3 mps 718 mmHg 72%
    03:00 -2°C° 0 mm 4 mps 718 mmHg 73%
    04:00 -2°C° 0 mm 4 mps 718 mmHg 74%
    05:00 -2°C° 0 mm 4 mps 719 mmHg 74%
    06:00 -1°C° 0 mm 3 mps 720 mmHg 75%
    07:00 -1°C° 0 mm 3 mps 721 mmHg 75%
    08:00 -1°C° 0 mm 4 mps 721 mmHg 68%
    09:00 +1°C° 0 mm 5 mps 722 mmHg 62%
    10:00 +2°C° 0 mm 5 mps 723 mmHg 55%
    11:00 +2°C° 0 mm 5 mps 723 mmHg 52%
    12:00 +3°C° 0 mm 6 mps 723 mmHg 49%
    13:00 +4°C° 0 mm 6 mps 723 mmHg 46%
    14:00 +5°C° 0 mm 5 mps 723 mmHg 46%
    15:00 +5°C° 0 mm 4 mps 723 mmHg 46%
    16:00 +4°C° 0 mm 3 mps 723 mmHg 47%
    17:00 +4°C° 0 mm 2 mps 723 mmHg 54%
    18:00 +3°C° 0 mm 2 mps 722 mmHg 61%
    19:00 +2°C° 0 mm 1 mps 722 mmHg 68%
    20:00 +2°C° 0 mm 1 mps 722 mmHg 70%
    21:00 +2°C° 0 mm 2 mps 722 mmHg 73%
    22:00 +2°C° 0 mm 2 mps 721 mmHg 76%
    23:00 +2°C° 0 mm 2 mps 720 mmHg 76%

    28 February, Friday

    Time Temperature Precipitation Wind Pressure Humidity
    00:00 0°C° 0 mm 3 mps 720 mmHg 75%
    01:00 -1°C° 0 mm 4 mps 719 mmHg 75%
    02:00 -1°C° 0 mm 4 mps 718 mmHg 75%
    03:00 -1°C° 0 mm 4 mps 718 mmHg 76%
    04:00 -2°C° 0 mm 4 mps 717 mmHg 76%
    05:00 -1°C° 0 mm 3 mps 717 mmHg 75%
    06:00 0°C° 0 mm 3 mps 718 mmHg 74%
    07:00 0°C° 0 mm 3 mps 718 mmHg 73%
    08:00 +1°C° 0 mm 3 mps 718 mmHg 68%
    09:00 +3°C° 0 mm 3 mps 718 mmHg 64%
    10:00 +5°C° 0 mm 3 mps 719 mmHg 59%
    11:00 +7°C° 0 mm 3 mps 719 mmHg 58%
    12:00 +8°C° 0 mm 3 mps 720 mmHg 57%
    13:00 +10°C° 0 mm 3 mps 720 mmHg 56%
    14:00 +9°C° 0 mm 2 mps 720 mmHg 60%
    15:00 +9°C° 0 mm 2 mps 720 mmHg 63%
    16:00 +10°C° 0 mm 1 mps 720 mmHg 67%
    17:00 +9°C° 0.1 mm 1 mps 720 mmHg 72%
    18:00 +8°C° 0.1 mm 1 mps 720 mmHg 76%
    19:00 +7°C° 0.1 mm 1 mps 721 mmHg 81%
    20:00 +6°C° 0 mm 1 mps 721 mmHg 82%
    21:00 +6°C° 0 mm 1 mps 721 mmHg 84%
    22:00 +6°C° 0 mm 1 mps 721 mmHg 85%
    23:00 +5°C° 0 mm 1 mps 720 mmHg 86%
    Show more